Wetbulb
60.92 61.04 61.04 60.84 60.73 61.17 61.42 61.03 60.11 60.36 61.02 61.61 61.48 61.38 61.45 61.35 61.16 61.31 61.33 61.21 60.85 60.75 60.34 59.30 58.95 58.88 58.74 58.67 58.79 59.45 59.86 59.65 58.60 56.93 55.89 56.47 57.19 57.72 58.15 58.66 59.11 59.60 60.15 60.39 60.14 59.88 59.35 59.12 59.33 59.67 60.05 59.90 59.71 59.57 59.18 58.82 58.24 57.48 56.42 55.66 55.40 55.38 55.47 55.25 55.42 55.60 55.97 55.96 55.67
60.97 61.26 60.81 59.12 59.24 60.41 61.09 60.32 60.08 60.15 60.60 61.43 61.44 61.62 61.78 61.51 61.20 61.22 61.40 61.51 61.17 61.06 60.82 60.02 59.34 59.03 59.00 58.77 59.10 59.88 60.37 59.66 58.63 57.38 56.57 56.91 57.51 58.11 58.65 59.02 59.50 59.83 60.14 60.32 60.20 59.68 59.29 58.98 58.85 59.08 59.53 60.10 60.01 59.82 59.68 59.13 58.88 57.99 57.00 55.69 55.35 55.28 55.34 55.01 55.40 55.62 55.73 55.71 55.78
61.35 61.55 61.35 60.73 60.87 61.10 61.17 60.72 60.72 60.90 61.08 61.44 61.62 61.78 61.76 61.71 61.26 61.15 61.48 61.76 61.60 61.42 61.09 60.27 59.46 59.25 59.18 59.08 59.61 60.28 60.61 59.81 58.68 57.74 57.20 57.39 57.79 58.32 58.93 59.41 59.77 59.68 59.70 60.12 60.14 59.73 59.29 58.87 58.27 58.01 58.16 59.24 59.77 60.02 59.92 59.93 59.43 58.57 57.53 56.23 55.65 55.19 54.92 54.67 55.23 55.38 55.38 54.97 55.51
61.65 61.63 61.31 61.00 60.97 61.01 60.96 60.74 60.89 61.01 61.15 61.17 61.53 61.63 61.63 61.58 61.22 61.31 61.58 61.88 61.75 61.34 60.88 60.25 59.56 59.19 59.18 59.12 59.81 60.43 60.41 58.99 58.37 57.84 57.40 57.41 57.95 58.55 59.09 59.45 59.67 59.81 59.84 60.11 59.92 59.62 59.27 58.71 58.37 58.13 58.31 58.98 59.64 59.99 60.08 60.14 59.55 58.89 58.15 57.34 56.47 55.54 54.97 54.76 55.17 55.17 54.96 54.80 55.26
61.54 61.56 61.60 61.31 61.28 61.12 61.12 61.54 61.41 61.32 61.19 61.23 61.31 61.29 61.40 61.38 61.26 61.42 61.35 60.98 60.92 60.99 60.83 60.55 59.78 59.40 59.26 59.40 59.90 60.34 60.23 59.24 57.42 57.24 57.67 57.49 58.02 58.70 59.43 59.97 59.72 59.74 59.67 59.70 59.73 59.36 58.98 58.57 58.40 58.49 58.82 59.05 59.65 59.95 60.24 60.36 59.83 59.34 58.75 58.16 57.09 56.32 55.79 55.47 55.61 55.46 54.99 54.61 54.93
61.44 61.76 61.76 61.53 61.46 61.28 61.39 61.75 61.62 61.33 61.19 61.15 60.93 60.80 60.82 60.97 60.88 60.83 60.55 60.52 60.61 60.79 60.65 59.72 59.15 58.76 58.93 59.67 59.99 60.25 60.23 59.97 58.83 58.20 57.98 57.49 58.05 58.79 59.47 59.73 59.79 59.63 59.36 59.21 59.16 58.94 58.38 58.24 57.94 58.38 58.88 59.49 59.67 60.08 60.36 60.40 59.92 59.43 58.92 58.48 57.86 57.20 56.61 56.06 55.82 55.47 55.06 54.35 54.42
61.26 61.46 61.40 61.33 61.33 61.26 61.35 61.63 61.51 61.23 60.98 60.84 60.71 60.57 60.57 60.55 60.43 60.38 60.37 60.28 60.43 60.32 59.84 58.86 58.92 59.10 59.26 59.83 59.92 60.07 60.14 60.06 59.88 59.20 58.38 57.69 58.08 58.43 58.73 58.96 59.01 58.89 58.67 58.49 58.29 57.95 57.82 57.80 57.58 57.45 57.53 57.90 59.06 59.71 60.07 59.98 59.59 59.22 58.79 58.60 58.27 57.49 56.72 56.26 56.03 55.44 54.82 54.20 54.25
61.11 61.30 61.42 61.29 61.27 61.29 61.44 61.53 61.46 61.05 60.68 60.45 60.46 60.38 60.41 60.31 60.14 60.03 59.99 59.92 59.91 59.79 59.43 59.39 59.93 59.99 59.99 59.94 59.84 59.90 59.92 60.01 59.96 59.64 58.83 57.95 58.10 58.40 58.43 58.70 58.54 58.34 58.12 58.01 57.93 57.71 57.57 57.30 57.28 57.33 57.60 57.98 58.51 58.89 59.26 59.46 59.24 58.88 58.60 58.65 58.43 57.80 57.08 56.65 56.18 55.37 54.65 54.20 54.16
60.71 61.09 61.42 61.47 61.38 61.47 61.49 61.51 61.35 60.89 60.49 60.19 60.30 60.30 60.39 60.14 59.90 59.70 59.56 59.46 59.16 59.24 59.64 59.80 60.17 60.23 60.31 60.17 59.83 59.74 59.74 59.66 59.88 59.65 59.03 58.17 58.08 58.06 58.14 58.24 57.99 57.86 57.73 57.84 57.92 57.77 57.62 57.24 57.06 57.27 57.80 58.31 58.44 58.45 58.63 58.81 58.71 58.60 58.57 58.50 58.22 57.70 57.00 56.49 56.13 55.67 55.01 54.55 54.33
60.33 60.68 61.15 61.20 61.29 61.38 61.47 61.60 61.16 60.84 60.55 60.14 60.12 59.92 58.99 57.14 58.49 59.20 59.48 59.06 58.83 58.99 59.62 59.99 60.23 60.26 60.19 59.82 59.58 59.50 59.56 59.53 59.86 59.65 59.06 58.23 57.89 58.01 58.02 57.92 57.52 57.47 57.44 57.75 57.80 57.84 57.84 57.49 57.14 57.32 57.63 58.13 58.20 57.99 58.02 58.18 58.32 58.43 58.30 58.12 57.75 57.30 56.78 56.12 55.92 55.51 54.81 54.30 54.23
60.27 60.57 60.89 61.28 61.27 61.18 61.20 61.49 60.81 60.51 60.26 60.11 59.90 59.62 58.61 57.07 58.56 59.17 59.30 58.87 58.84 59.02 59.55 60.04 60.19 60.19 59.99 59.60 59.29 59.24 59.55 59.83 60.00 59.78 59.11 58.34 58.01 58.05 58.12 57.79 57.38 57.28 57.27 57.46 57.75 57.87 57.91 57.81 57.37 57.33 57.47 57.81 57.87 57.66 57.53 57.66 57.91 58.07 58.06 57.83 57.45 56.85 56.34 55.64 55.42 55.14 54.80 54.35 54.37
60.29 60.64 61.01 61.29 61.29 61.25 61.18 60.91 60.41 60.13 59.99 59.85 59.75 59.44 59.28 59.28 59.55 59.40 58.96 58.76 58.85 59.02 59.57 59.99 60.09 60.16 59.99 59.61 59.18 59.13 59.43 60.10 60.11 59.86 59.25 58.69 58.69 58.49 58.16 57.73 57.38 57.19 57.29 57.45 57.90 57.93 57.83 57.49 57.27 57.12 57.12 57.47 57.51 57.41 57.30 57.28 57.44 57.53 57.44 57.20 56.90 56.27 55.56 55.23 55.04 55.06 54.99 54.77 54.57
60.31 60.61 60.78 61.02 61.07 61.18 61.00 60.46 60.28 59.99 59.81 59.75 59.44 59.28 59.19 59.35 59.46 59.22 58.87 58.83 58.76 59.02 59.52 59.83 59.93 60.08 60.17 59.88 59.56 59.63 59.80 59.89 59.99 59.82 59.42 59.08 59.03 58.74 58.32 57.78 57.37 57.19 57.21 57.55 57.95 57.90 57.70 57.30 57.31 57.11 57.00 56.92 57.10 56.96 57.00 56.91 56.95 56.76 56.48 56.06 55.72 55.31 54.96 54.96 55.03 55.16 55.31 55.34 54.96
60.18 60.29 60.61 60.66 61.00 60.92 60.70 60.25 60.09 59.82 59.64 59.35 59.28 59.10 59.19 59.48 59.02 58.75 58.65 58.83 58.76 59.16 59.36 59.59 59.52 59.61 59.84 60.02 59.81 59.80 59.87 59.87 59.84 59.82 59.68 59.22 59.28 58.97 58.53 57.87 57.43 57.25 57.28 57.81 58.04 57.86 57.62 57.07 57.16 57.02 56.82 56.47 56.49 56.55 56.53 56.42 56.15 55.98 55.56 55.17 54.76 54.70 54.69 55.05 55.20 55.55 55.67 55.77 55.52
59.97 60.19 60.41 60.50 60.80 60.65 60.25 60.07 59.82 59.69 59.42 59.06 59.06 59.06 59.19 59.30 58.65 58.38 58.51 58.89 58.99 59.18 59.39 59.48 59.20 59.21 59.48 60.02 59.98 59.91 59.87 59.78 59.84 59.72 59.59 59.42 59.40 59.09 58.83 58.19 57.84 57.67 57.71 58.13 58.32 58.09 57.88 57.45 57.47 57.42 57.12 56.39 56.37 56.32 56.22 55.64 55.42 55.11 54.94 54.58 54.58 54.70 55.09 55.60 55.95 56.26 56.22 56.14 55.78
59.89 60.13 60.30 60.39 60.48 60.20 59.94 59.93 59.69 59.51 59.24 58.98 58.97 59.01 59.19 59.30 58.88 58.39 58.20 58.59 59.01 59.21 59.40 59.17 59.16 59.30 59.43 59.21 59.69 59.82 59.78 59.69 59.71 59.59 59.49 59.53 59.41 59.33 59.09 58.77 58.38 58.21 58.32 58.51 58.51 58.52 58.33 58.19 58.12 58.09 57.82 57.14 56.95 56.73 56.24 55.38 55.16 54.92 54.79 54.94 55.05 55.52 55.83 56.08 56.44 56.49 56.35 56.06 55.54
59.84 60.12 60.39 60.21 59.99 59.73 59.64 59.50 59.48 59.33 59.16 58.79 58.83 59.01 59.12 59.22 58.91 58.25 57.65 57.76 58.64 58.99 59.08 58.93 58.99 59.11 59.07 58.70 59.23 59.48 59.61 59.61 59.51 59.48 59.47 59.37 59.29 59.24 59.13 58.99 58.91 58.78 58.84 58.69 58.60 58.62 58.70 58.91 58.76 58.76 58.79 58.28 58.02 57.65 56.78 55.77 55.48 55.34 55.39 55.63 55.93 56.42 56.57 56.18 56.30 56.30 56.10 55.64 55.08
60.03 60.35 60.46 60.41 59.88 59.56 59.40 59.47 59.31 59.17 58.97 58.83 58.83 58.91 59.10 59.08 58.85 58.10 57.71 57.62 58.39 58.71 58.85 58.79 58.97 59.03 59.06 59.07 59.21 59.23 59.32 59.52 59.52 59.56 59.65 59.53 59.27 59.09 58.99 58.96 58.83 58.89 58.85 58.71 58.49 58.29 58.36 58.67 58.89 59.02 58.98 59.11 59.08 58.64 57.85 56.78 56.36 56.30 56.34 56.51 56.71 56.96 56.80 56.43 56.41 56.15 55.90 55.62 55.07
59.97 60.12 60.32 60.26 59.92 59.66 59.57 59.24 59.03 59.02 58.85 58.85 58.76 58.94 59.05 59.09 58.85 58.49 58.08 58.01 58.08 58.43 58.71 58.76 58.76 59.03 59.15 59.19 59.28 58.89 58.76 59.62 59.82 59.89 59.94 59.84 59.34 59.09 59.02 58.76 58.54 58.58 58.45 58.24 58.13 58.13 58.12 58.38 58.69 58.94 59.15 59.31 59.29 59.04 58.21 57.58 57.32 57.17 57.13 56.96 56.96 56.90 56.78 56.57 56.42 56.31 56.19 56.24 55.82
59.58 59.63 59.79 59.99 59.97 59.88 59.72 59.40 59.18 59.09 58.89 58.93 58.75 58.75 58.84 59.01 58.84 58.45 58.12 58.07 58.08 58.33 58.65 58.66 58.61 58.84 59.01 59.02 59.10 58.93 59.03 59.46 59.90 60.20 60.17 59.99 59.44 59.09 59.00 58.82 58.47 58.26 58.16 57.86 57.77 57.86 57.78 57.94 58.24 58.66 58.95 59.07 58.62 58.33 57.87 57.58 57.56 57.57 57.50 57.25 56.95 56.75 56.77 56.57 56.62 56.65 56.73 56.85 56.88
59.13 59.27 59.52 59.68 59.68 59.70 59.66 59.83 59.45 59.21 58.92 58.83 58.65 58.66 58.76 58.75 58.62 58.40 58.05 57.95 58.23 58.43 58.59 58.58 58.67 58.78 58.85 58.83 58.85 59.07 59.30 59.22 59.82 59.95 59.80 59.47 59.15 59.08 59.07 58.89 58.53 58.28 58.22 57.90 57.61 57.50 57.50 57.53 57.53 57.83 58.19 58.22 57.72 57.47 57.34 57.21 57.26 57.22 57.22 57.14 57.00 56.96 57.11 57.19 57.19 57.16 57.14 57.03 57.10
58.82 59.26 59.43 59.55 59.49 59.55 59.65 59.84 59.55 59.14 58.78 58.75 58.57 58.58 58.58 58.58 58.47 58.37 58.25 58.27 58.36 58.35 58.46 58.63 58.79 58.79 58.79 58.79 58.73 58.93 59.13 59.34 59.79 59.80 59.61 59.11 58.93 58.97 58.96 59.11 58.82 58.53 58.13 57.85 57.63 57.32 57.22 57.03 57.06 57.20 57.29 57.35 57.24 57.14 56.80 56.63 56.85 56.96 56.96 57.08 57.11 57.36 57.54 57.67 57.61 57.48 57.35 57.12 57.08
58.82 59.27 59.50 59.57 59.48 58.97 58.76 59.24 59.17 58.99 58.67 58.46 58.40 58.37 58.37 58.46 58.58 58.51 58.47 58.38 58.12 58.21 58.48 58.71 58.89 59.09 59.00 59.02 58.98 59.09 59.09 59.24 59.41 59.43 59.35 59.26 58.91 58.89 58.88 59.29 58.91 58.63 58.23 58.19 58.09 57.88 57.52 57.27 56.96 57.03 57.00 57.10 57.18 57.12 56.78 56.55 56.46 56.59 56.70 56.85 57.11 57.34 57.62 57.74 57.78 57.61 57.50 57.27 57.12
58.66 58.85 59.22 59.53 59.44 59.19 59.06 59.06 58.97 58.65 58.38 58.29 58.19 58.29 58.29 58.38 58.37 58.40 58.29 58.20 58.11 58.17 58.35 58.50 58.63 58.94 59.02 59.09 59.02 58.93 58.81 58.73 58.71 58.79 58.98 58.91 58.69 58.52 58.63 58.70 58.67 58.48 58.48 58.64 57.95 57.57 57.29 57.30 57.38 57.23 57.12 57.15 57.28 57.16 57.03 56.65 56.37 56.42 56.47 56.80 57.04 57.28 57.51 57.62 57.61 57.42 57.21 56.88 56.71
58.32 58.21 58.48 59.22 59.08 59.01 58.92 58.92 58.61 58.34 58.11 58.11 58.11 58.11 58.11 58.25 58.25 58.16 58.01 58.02 58.07 58.28 58.38 58.37 58.53 58.79 58.96 58.79 58.65 58.47 58.21 57.99 57.92 57.89 57.96 58.20 58.22 58.26 58.17 58.11 58.20 58.19 57.97 56.92 51.88 50.60 51.59 53.48 55.78 57.04 57.69 57.60 57.42 57.22 56.87 56.50 56.42 56.44 56.38 56.71 56.83 56.96 56.96 57.08 57.10 57.06 56.84 56.57 56.69
58.06 58.05 58.06 58.53 58.65 58.74 58.65 58.56 58.38 58.29 58.11 58.11 58.11 58.02 58.02 58.07 58.08 57.89 57.84 57.83 58.03 58.15 58.34 58.22 58.35 57.88 57.58 58.37 58.09 57.83 57.63 57.55 57.30 57.21 57.20 57.22 57.49 57.60 57.63 57.60 57.56 57.82 56.82 53.08 46.37 45.08 46.90 49.16 50.67 52.96 55.47 58.15 57.39 56.82 56.57 56.44 56.44 56.37 56.45 56.68 56.57 56.51 56.43 56.26 56.23 56.44 56.71 56.75 56.79
57.79 57.71 57.86 58.20 58.34 58.40 58.38 58.37 58.28 58.20 58.11 57.92 57.83 57.84 57.89 58.07 57.99 57.89 57.89 57.75 57.92 58.04 58.20 58.34 58.14 56.79 56.23 58.02 57.60 57.22 57.16 57.13 56.89 56.77 56.67 56.69 56.84 57.04 57.22 57.33 57.42 57.64 55.89 49.87 43.63 41.93 43.18 45.71 46.57 47.96 50.89 56.30 56.65 56.57 56.30 56.18 56.35 56.46 56.68 57.00 57.12 57.09 56.87 56.63 56.31 55.95 55.51 54.71 54.37
57.55 57.68 57.76 57.80 57.84 57.93 58.06 58.12 58.01 58.02 57.84 57.74 57.74 57.92 57.92 57.92 57.84 57.75 57.66 57.71 57.89 57.89 58.02 57.94 57.66 57.24 57.20 57.84 57.32 57.04 56.92 56.96 56.87 56.88 56.71 56.65 56.60 56.82 57.12 57.33 57.73 56.68 53.60 47.57 43.08 41.36 41.58 43.34 44.20 44.63 46.43 50.85 55.19 56.39 56.23 56.32 56.87 57.01 56.93 56.27 55.81 55.81 56.05 56.07 55.24 54.01 52.55 51.17 51.63
57.53 57.66 57.59 57.47 57.45 57.42 57.60 57.70 57.74 57.66 57.65 57.74 57.69 57.87 57.87 57.78 57.65 57.66 57.62 57.53 57.53 57.54 57.45 57.44 57.23 57.36 57.62 57.47 57.25 57.06 56.95 56.85 56.96 57.17 57.12 56.78 56.95 57.06 57.30 57.76 57.94 55.46 51.01 45.41 42.93 41.60 41.29 42.16 42.69 42.79 43.56 46.14 52.43 55.31 56.36 56.39 56.10 54.93 53.38 51.72 50.82 50.40 50.50 50.85 49.30 48.15 47.78 48.25 49.32
57.45 57.46 57.24 57.09 57.08 57.03 57.17 57.31 57.43 57.48 57.48 57.49 57.51 57.51 57.39 57.18 57.28 57.25 57.33 57.30 57.26 57.18 57.14 57.33 57.23 57.36 57.29 57.22 57.43 57.27 57.13 57.13 57.07 57.18 57.36 57.03 57.03 57.15 57.30 57.12 58.15 56.18 51.57 44.11 42.72 41.77 41.23 41.65 41.80 41.81 41.87 42.87 48.48 53.28 56.26 56.43 54.13 51.23 48.59 47.30 46.57 46.09 46.02 46.20 45.31 45.19 45.62 46.55 47.37
57.32 57.19 56.94 56.66 56.65 56.51 56.65 56.90 57.16 57.12 57.22 57.18 57.22 57.22 57.01 56.64 56.62 56.83 56.96 57.12 56.91 56.44 56.30 57.06 57.18 57.21 57.15 57.38 57.48 57.56 57.48 57.67 57.52 57.48 57.51 57.49 56.55 57.03 57.84 58.14 58.29 53.88 47.35 41.23 41.95 41.93 41.50 41.41 41.25 41.04 41.02 41.38 46.55 52.31 55.46 54.19 50.52 47.68 45.82 44.45 43.74 43.56 43.65 43.65 43.25 43.25 43.51 44.24 44.63
57.32 57.10 56.85 56.60 56.40 56.34 56.50 56.71 56.78 56.88 56.88 56.78 56.82 56.92 56.77 56.52 56.61 56.97 57.02 56.94 56.73 56.42 56.52 56.82 56.90 56.90 56.90 57.18 57.26 57.39 57.60 57.70 57.78 57.75 57.68 57.45 57.64 57.49 56.85 55.36 53.61 46.59 39.81 39.03 40.33 40.72 40.54 40.16 39.98 40.04 40.56 41.66 46.82 51.02 52.23 48.87 46.60 44.74 43.10 41.68 41.16 41.02 41.23 41.18 41.16 41.23 41.35 41.73 42.11
57.45 57.13 56.83 56.49 56.31 56.29 56.49 56.60 56.66 56.64 56.60 56.45 56.55 56.61 56.58 56.68 56.85 57.03 57.12 57.11 56.81 56.90 56.94 56.90 56.75 56.76 56.73 56.73 57.00 57.26 57.51 57.36 57.16 56.62 56.16 56.27 56.49 54.03 50.01 45.61 43.95 41.78 39.77 38.42 39.03 39.50 39.60 39.59 39.84 40.31 40.88 41.74 46.37 48.56 48.57 46.50 44.65 42.88 41.20 39.91 39.13 38.79 38.67 38.61 38.71 38.80 38.88 38.96 39.57
57.55 57.16 56.80 56.40 56.23 56.19 56.34 56.40 56.60 56.49 56.37 56.27 56.22 56.27 56.53 56.55 56.74 56.73 56.68 56.72 57.06 57.24 57.12 56.97 57.01 57.01 57.07 56.96 56.88 55.87 53.78 50.32 49.99 50.32 50.85 50.87 49.56 48.05 46.77 46.01 44.68 41.80 39.02 38.60 38.83 39.44 39.87 40.19 40.56 40.84 41.28 41.72 45.66 46.93 46.33 44.58 42.71 41.01 39.40 38.17 37.56 37.36 37.30 37.06 37.06 37.06 37.14 37.24 37.85
57.62 57.16 56.73 56.36 56.30 56.25 56.40 56.46 56.44 56.22 56.16 55.98 56.00 56.16 56.38 56.53 56.56 56.50 56.16 55.18 54.10 53.28 52.28 51.30 51.22 50.79 50.43 50.02 50.06 49.81 49.39 48.37 48.45 48.45 48.37 48.47 47.73 46.63 45.56 45.07 44.04 41.33 38.87 38.93 38.97 39.36 40.01 40.34 40.56 41.01 41.72 42.75 45.31 45.45 44.24 42.26 40.55 39.14 38.03 37.12 36.57 36.17 36.04 35.84 35.67 35.58 35.78 36.21 37.03
57.67 57.29 56.83 56.40 56.32 56.31 56.50 56.48 56.40 56.19 55.93 55.73 55.74 55.93 56.14 56.39 56.61 55.88 54.08 50.46 49.03 48.26 47.93 47.46 47.44 47.45 47.07 46.41 46.10 45.71 45.57 46.32 46.54 46.81 47.12 47.38 47.07 46.50 45.74 45.15 44.13 41.60 39.27 38.93 39.06 39.26 39.51 39.75 40.16 40.84 42.04 44.13 44.93 43.89 42.21 40.55 39.10 38.17 37.29 36.36 35.53 34.84 34.28 34.29 34.45 34.46 34.57 34.72 35.28
57.88 57.62 57.16 56.61 56.44 56.34 56.42 56.44 56.32 56.12 55.92 55.78 55.81 55.99 55.96 56.25 56.14 54.28 51.36 47.31 46.75 46.23 45.95 45.79 45.45 44.96 44.39 43.67 43.13 42.87 43.23 43.98 44.41 44.59 44.76 45.17 45.66 45.71 45.26 44.50 43.69 41.39 38.88 38.19 38.63 38.80 39.08 39.32 39.75 40.84 42.37 44.10 43.49 42.11 40.41 39.03 37.75 36.54 35.46 34.45 34.02 33.69 33.29 33.14 33.07 33.12 33.06 33.02 33.47
58.03 57.84 57.47 57.00 56.63 56.47 56.48 56.46 56.31 56.06 56.10 56.12 56.29 56.41 56.42 56.51 55.70 52.73 48.84 45.17 45.20 44.88 44.29 43.89 43.40 42.64 42.06 41.48 41.03 40.77 40.92 41.33 41.61 42.07 42.41 42.78 43.39 43.75 43.65 42.87 41.97 40.34 38.83 37.70 37.94 38.19 38.53 39.00 39.30 40.27 41.59 42.84 41.93 40.58 39.04 37.67 36.21 34.64 33.33 32.12 31.86 31.97 32.30 32.50 32.32 32.25 32.09 31.91 32.16
57.91 57.89 57.68 57.33 57.04 56.76 56.67 56.49 56.45 56.40 56.55 56.73 56.73 56.80 56.85 56.96 55.12 51.24 47.32 44.65 44.54 43.86 43.03 42.14 41.60 41.06 40.61 40.00 39.65 39.22 39.10 38.99 38.87 38.78 38.99 39.42 39.73 40.11 40.36 40.31 39.69 38.94 38.16 37.41 37.55 37.83 38.08 38.46 38.71 39.33 40.04 40.82 40.53 39.45 37.82 36.02 34.29 32.97 31.86 31.23 30.86 30.77 30.95 31.12 31.23 31.07 31.10 31.31 31.72
57.63 57.73 57.80 57.61 57.39 57.12 56.90 56.83 56.79 56.84 57.09 57.13 57.04 57.29 56.94 55.42 51.41 47.89 45.48 44.63 44.33 43.38 42.33 41.19 40.52 40.12 39.51 38.64 38.42 37.94 37.24 36.70 36.27 35.90 35.71 36.01 36.24 36.51 36.93 37.37 37.56 37.39 37.19 36.92 37.11 37.35 37.68 38.01 38.27 38.61 39.19 39.77 39.36 38.14 36.35 34.60 32.88 31.58 30.86 30.37 29.93 29.67 29.50 29.73 29.90 29.93 29.89 30.03 30.48
57.33 57.45 57.36 57.37 57.47 57.24 57.06 56.94 57.10 57.14 57.37 57.45 57.36 56.10 53.76 50.40 47.44 45.71 44.84 44.15 43.25 42.26 41.21 40.28 39.60 39.13 38.47 37.53 37.05 36.08 34.96 34.05 33.84 33.67 33.76 33.80 34.03 34.42 34.83 35.21 35.57 35.75 36.05 36.29 36.41 36.65 36.97 37.30 37.55 37.93 38.25 38.52 38.25 37.05 35.45 33.74 31.93 30.62 29.89 29.58 29.31 28.78 28.52 28.35 28.66 28.66 28.67 28.61 28.77
MSLP
1001.93 1002.25 1002.65 1002.89 1003.01 1003.05 1003.09 1003.17 1003.29 1003.37 1003.49 1003.61 1003.77 1003.89 1004.01 1004.09 1004.25 1004.41 1004.61 1004.77 1004.93 1005.13 1005.37 1005.61 1005.89 1006.13 1006.37 1006.69 1006.93 1007.21 1007.49 1007.73 1008.05 1008.29 1008.49 1008.69 1008.97 1009.25 1009.53 1009.81 1010.05 1010.33 1010.65 1010.97 1011.29 1011.57 1011.77 1012.05 1012.37 1012.77 1013.21 1013.57 1013.93 1014.21 1014.49 1014.65 1014.81 1014.97 1015.09 1015.17 1015.21 1015.29 1015.37 1015.49 1015.49 1015.61 1015.73 1015.77 1015.89
1001.81 1002.13 1002.49 1002.69 1002.77 1002.85 1002.93 1003.09 1003.21 1003.33 1003.45 1003.49 1003.61 1003.73 1003.81 1003.93 1004.05 1004.21 1004.37 1004.57 1004.65 1004.85 1005.09 1005.37 1005.69 1005.93 1006.21 1006.49 1006.73 1006.93 1007.17 1007.41 1007.73 1008.05 1008.41 1008.69 1008.97 1009.25 1009.53 1009.77 1010.05 1010.37 1010.65 1010.89 1011.13 1011.37 1011.65 1011.93 1012.29 1012.73 1013.17 1013.49 1013.89 1014.21 1014.45 1014.61 1014.77 1014.93 1015.05 1015.09 1015.13 1015.21 1015.33 1015.37 1015.41 1015.49 1015.61 1015.73 1015.81
1001.73 1002.01 1002.25 1002.45 1002.57 1002.69 1002.81 1002.97 1003.09 1003.21 1003.33 1003.41 1003.49 1003.61 1003.69 1003.81 1003.89 1004.05 1004.21 1004.33 1004.49 1004.65 1004.93 1005.17 1005.45 1005.73 1006.01 1006.29 1006.53 1006.69 1006.85 1007.05 1007.45 1007.93 1008.33 1008.69 1008.97 1009.25 1009.49 1009.77 1010.05 1010.33 1010.61 1010.81 1010.97 1011.21 1011.53 1011.85 1012.21 1012.65 1013.05 1013.49 1013.85 1014.13 1014.37 1014.61 1014.77 1014.93 1015.01 1015.05 1015.05 1015.09 1015.21 1015.29 1015.33 1015.45 1015.57 1015.69 1015.77
1001.61 1001.81 1002.05 1002.21 1002.37 1002.53 1002.65 1002.77 1002.93 1003.01 1003.13 1003.29 1003.37 1003.49 1003.61 1003.69 1003.77 1003.85 1003.97 1004.13 1004.33 1004.49 1004.69 1004.89 1005.21 1005.49 1005.81 1006.05 1006.33 1006.49 1006.65 1006.85 1007.25 1007.73 1008.21 1008.61 1008.89 1009.13 1009.41 1009.73 1010.05 1010.33 1010.53 1010.73 1010.93 1011.21 1011.49 1011.81 1012.21 1012.61 1013.05 1013.45 1013.77 1014.05 1014.29 1014.53 1014.77 1014.89 1014.93 1014.93 1014.93 1014.97 1015.05 1015.13 1015.21 1015.33 1015.49 1015.61 1015.65
1001.49 1001.65 1001.81 1002.01 1002.21 1002.37 1002.53 1002.61 1002.73 1002.85 1003.01 1003.17 1003.29 1003.37 1003.49 1003.53 1003.61 1003.69 1003.81 1004.01 1004.17 1004.33 1004.45 1004.65 1004.89 1005.25 1005.61 1005.85 1006.09 1006.33 1006.49 1006.69 1007.05 1007.53 1008.05 1008.45 1008.77 1009.05 1009.33 1009.61 1009.97 1010.25 1010.49 1010.73 1010.93 1011.17 1011.45 1011.77 1012.13 1012.53 1012.97 1013.33 1013.65 1013.93 1014.13 1014.33 1014.49 1014.65 1014.73 1014.81 1014.85 1014.85 1014.89 1014.97 1015.05 1015.21 1015.33 1015.45 1015.57
1001.33 1001.49 1001.65 1001.85 1002.09 1002.29 1002.45 1002.53 1002.65 1002.77 1002.93 1003.05 1003.17 1003.25 1003.33 1003.45 1003.53 1003.61 1003.69 1003.81 1003.97 1004.13 1004.29 1004.49 1004.69 1005.05 1005.33 1005.61 1005.93 1006.17 1006.33 1006.49 1006.89 1007.37 1007.93 1008.33 1008.65 1008.93 1009.25 1009.61 1009.93 1010.25 1010.49 1010.73 1010.93 1011.21 1011.45 1011.73 1012.05 1012.49 1012.89 1013.21 1013.53 1013.77 1013.93 1014.05 1014.21 1014.33 1014.49 1014.57 1014.65 1014.65 1014.73 1014.77 1014.89 1015.05 1015.21 1015.33 1015.49
1001.17 1001.33 1001.61 1001.81 1002.01 1002.21 1002.33 1002.45 1002.57 1002.69 1002.85 1003.01 1003.05 1003.09 1003.17 1003.29 1003.33 1003.41 1003.49 1003.65 1003.85 1004.05 1004.21 1004.37 1004.61 1004.85 1005.13 1005.45 1005.77 1006.01 1006.17 1006.33 1006.65 1007.21 1007.77 1008.25 1008.65 1008.93 1009.21 1009.53 1009.93 1010.21 1010.49 1010.69 1010.97 1011.21 1011.45 1011.65 1012.01 1012.37 1012.73 1013.05 1013.29 1013.45 1013.61 1013.77 1013.93 1014.09 1014.21 1014.29 1014.37 1014.49 1014.61 1014.65 1014.77 1014.93 1015.09 1015.21 1015.33
1001.05 1001.29 1001.53 1001.73 1001.93 1002.09 1002.21 1002.33 1002.45 1002.65 1002.77 1002.93 1003.01 1003.05 1003.09 1003.13 1003.21 1003.33 1003.49 1003.61 1003.77 1003.93 1004.05 1004.21 1004.37 1004.61 1004.89 1005.21 1005.49 1005.77 1005.97 1006.13 1006.53 1007.05 1007.61 1008.09 1008.49 1008.77 1009.05 1009.41 1009.81 1010.13 1010.41 1010.65 1010.93 1011.21 1011.49 1011.65 1011.93 1012.21 1012.49 1012.73 1012.89 1013.05 1013.21 1013.49 1013.69 1013.89 1013.97 1014.05 1014.13 1014.25 1014.37 1014.49 1014.61 1014.77 1014.93 1015.05 1015.21
1001.05 1001.29 1001.49 1001.65 1001.81 1001.93 1002.05 1002.21 1002.33 1002.49 1002.69 1002.81 1002.93 1003.01 1003.05 1003.05 1003.13 1003.25 1003.37 1003.49 1003.61 1003.77 1003.93 1004.05 1004.21 1004.45 1004.69 1004.97 1005.33 1005.57 1005.73 1005.97 1006.45 1006.97 1007.41 1007.85 1008.21 1008.61 1008.93 1009.29 1009.61 1009.97 1010.33 1010.65 1010.93 1011.21 1011.49 1011.77 1011.93 1012.13 1012.29 1012.37 1012.53 1012.69 1012.93 1013.21 1013.45 1013.61 1013.77 1013.81 1013.93 1014.05 1014.21 1014.37 1014.49 1014.61 1014.77 1014.93 1015.05
1001.01 1001.21 1001.37 1001.57 1001.65 1001.81 1001.97 1002.09 1002.25 1002.41 1002.61 1002.77 1002.89 1002.97 1003.05 1003.09 1003.13 1003.21 1003.29 1003.37 1003.57 1003.73 1003.85 1003.93 1004.13 1004.33 1004.65 1004.93 1005.21 1005.41 1005.61 1006.01 1006.45 1006.89 1007.29 1007.65 1008.05 1008.41 1008.77 1009.05 1009.45 1009.89 1010.29 1010.61 1010.93 1011.25 1011.57 1011.85 1011.97 1012.05 1012.13 1012.21 1012.33 1012.49 1012.69 1012.97 1013.21 1013.37 1013.49 1013.61 1013.73 1013.89 1014.05 1014.21 1014.33 1014.49 1014.65 1014.77 1014.97
1000.93 1001.05 1001.25 1001.41 1001.53 1001.73 1001.89 1002.01 1002.21 1002.33 1002.53 1002.69 1002.85 1002.93 1003.05 1003.09 1003.13 1003.17 1003.25 1003.41 1003.57 1003.65 1003.77 1003.89 1004.09 1004.33 1004.65 1004.93 1005.17 1005.37 1005.69 1006.05 1006.45 1006.81 1007.17 1007.49 1007.89 1008.25 1008.61 1008.93 1009.33 1009.77 1010.13 1010.53 1010.93 1011.33 1011.65 1011.93 1012.05 1012.05 1012.05 1012.17 1012.29 1012.41 1012.61 1012.77 1013.01 1013.17 1013.25 1013.37 1013.53 1013.73 1013.89 1014.05 1014.21 1014.33 1014.49 1014.65 1014.85
1000.85 1001.01 1001.13 1001.33 1001.45 1001.61 1001.77 1001.93 1002.09 1002.29 1002.49 1002.65 1002.77 1002.93 1003.01 1003.05 1003.05 1003.17 1003.29 1003.41 1003.53 1003.65 1003.77 1003.93 1004.05 1004.33 1004.61 1004.89 1005.17 1005.49 1005.89 1006.21 1006.45 1006.77 1007.05 1007.37 1007.77 1008.21 1008.65 1008.97 1009.33 1009.65 1010.05 1010.45 1010.93 1011.33 1011.69 1011.93 1012.05 1012.09 1012.09 1012.09 1012.21 1012.37 1012.49 1012.69 1012.85 1013.01 1013.17 1013.33 1013.49 1013.65 1013.77 1013.93 1014.09 1014.25 1014.37 1014.49 1014.73
1000.77 1000.93 1001.09 1001.25 1001.41 1001.53 1001.65 1001.81 1002.01 1002.21 1002.37 1002.49 1002.65 1002.85 1002.97 1003.01 1003.05 1003.17 1003.29 1003.41 1003.49 1003.61 1003.77 1003.97 1004.13 1004.33 1004.61 1004.89 1005.25 1005.61 1006.01 1006.25 1006.41 1006.65 1006.93 1007.29 1007.73 1008.21 1008.65 1008.97 1009.29 1009.61 1010.01 1010.45 1010.89 1011.29 1011.61 1011.89 1012.05 1012.05 1012.05 1012.09 1012.21 1012.29 1012.45 1012.65 1012.85 1013.01 1013.17 1013.33 1013.53 1013.65 1013.77 1013.85 1014.01 1014.13 1014.25 1014.37 1014.49
1000.69 1000.89 1001.05 1001.21 1001.33 1001.41 1001.53 1001.77 1001.93 1002.09 1002.21 1002.37 1002.53 1002.73 1002.89 1002.97 1003.09 1003.21 1003.33 1003.45 1003.57 1003.69 1003.85 1004.05 1004.25 1004.49 1004.73 1005.01 1005.33 1005.73 1006.01 1006.17 1006.29 1006.49 1006.77 1007.17 1007.61 1008.05 1008.49 1008.85 1009.21 1009.61 1010.01 1010.49 1010.89 1011.21 1011.49 1011.77 1011.97 1012.05 1012.05 1012.05 1012.13 1012.29 1012.49 1012.69 1012.89 1013.05 1013.21 1013.33 1013.49 1013.57 1013.65 1013.77 1013.93 1014.05 1014.13 1014.21 1014.25
1000.65 1000.81 1000.97 1001.13 1001.21 1001.29 1001.49 1001.69 1001.85 1001.97 1002.13 1002.29 1002.49 1002.65 1002.81 1002.93 1003.09 1003.21 1003.33 1003.49 1003.61 1003.77 1003.93 1004.09 1004.33 1004.57 1004.81 1005.05 1005.33 1005.65 1005.93 1006.05 1006.21 1006.33 1006.65 1007.09 1007.49 1007.93 1008.33 1008.77 1009.21 1009.61 1010.05 1010.45 1010.77 1011.05 1011.29 1011.61 1011.93 1012.05 1012.09 1012.05 1012.09 1012.25 1012.49 1012.73 1012.89 1012.97 1013.09 1013.21 1013.33 1013.45 1013.57 1013.69 1013.77 1013.85 1013.93 1014.01 1014.05
1000.61 1000.77 1000.93 1001.01 1001.09 1001.21 1001.41 1001.61 1001.77 1001.89 1002.05 1002.21 1002.37 1002.57 1002.73 1002.85 1003.05 1003.21 1003.33 1003.53 1003.73 1003.89 1004.01 1004.13 1004.37 1004.65 1004.89 1005.09 1005.33 1005.61 1005.85 1006.05 1006.13 1006.33 1006.61 1007.05 1007.45 1007.85 1008.25 1008.69 1009.17 1009.61 1010.01 1010.33 1010.65 1010.89 1011.21 1011.49 1011.81 1012.05 1012.13 1012.09 1012.09 1012.21 1012.41 1012.65 1012.77 1012.89 1012.97 1013.05 1013.21 1013.29 1013.41 1013.49 1013.61 1013.61 1013.69 1013.77 1013.85
1000.49 1000.65 1000.81 1000.97 1001.05 1001.21 1001.33 1001.49 1001.65 1001.81 1001.97 1002.09 1002.29 1002.49 1002.65 1002.77 1002.97 1003.13 1003.33 1003.49 1003.69 1003.89 1004.05 1004.21 1004.49 1004.73 1004.93 1005.17 1005.37 1005.61 1005.85 1006.05 1006.21 1006.45 1006.73 1007.05 1007.45 1007.81 1008.21 1008.65 1009.09 1009.49 1009.77 1010.05 1010.33 1010.65 1011.01 1011.33 1011.65 1011.93 1012.09 1012.21 1012.17 1012.13 1012.21 1012.49 1012.65 1012.77 1012.85 1012.93 1012.97 1013.05 1013.13 1013.25 1013.33 1013.37 1013.45 1013.57 1013.65
1000.45 1000.57 1000.73 1000.85 1001.01 1001.13 1001.25 1001.41 1001.57 1001.77 1001.93 1002.05 1002.21 1002.41 1002.57 1002.73 1002.89 1003.05 1003.25 1003.45 1003.61 1003.77 1004.05 1004.29 1004.57 1004.77 1004.93 1005.09 1005.37 1005.61 1005.93 1006.17 1006.41 1006.69 1006.93 1007.21 1007.53 1007.85 1008.21 1008.61 1008.97 1009.29 1009.49 1009.69 1009.93 1010.25 1010.65 1011.05 1011.41 1011.77 1012.05 1012.25 1012.21 1012.13 1012.13 1012.29 1012.49 1012.65 1012.73 1012.77 1012.77 1012.77 1012.85 1012.93 1013.05 1013.13 1013.21 1013.33 1013.49
1000.37 1000.49 1000.65 1000.77 1000.93 1001.05 1001.21 1001.37 1001.53 1001.69 1001.81 1001.97 1002.17 1002.33 1002.49 1002.69 1002.81 1003.01 1003.21 1003.41 1003.57 1003.77 1003.97 1004.25 1004.53 1004.73 1004.89 1005.05 1005.29 1005.61 1005.97 1006.21 1006.61 1006.93 1007.21 1007.49 1007.73 1007.97 1008.25 1008.61 1008.93 1009.13 1009.29 1009.49 1009.65 1009.97 1010.33 1010.73 1011.17 1011.61 1011.97 1012.21 1012.21 1012.13 1012.05 1012.09 1012.25 1012.45 1012.57 1012.61 1012.57 1012.61 1012.65 1012.73 1012.81 1012.93 1013.01 1013.13 1013.25
1000.25 1000.45 1000.57 1000.69 1000.81 1000.97 1001.17 1001.33 1001.49 1001.61 1001.77 1001.93 1002.17 1002.33 1002.49 1002.65 1002.81 1002.97 1003.17 1003.37 1003.57 1003.77 1003.97 1004.21 1004.49 1004.69 1004.89 1005.09 1005.37 1005.69 1006.01 1006.33 1006.69 1007.05 1007.33 1007.61 1007.81 1008.05 1008.33 1008.65 1008.93 1009.09 1009.21 1009.33 1009.49 1009.77 1010.13 1010.49 1010.93 1011.33 1011.73 1012.05 1012.05 1011.97 1011.93 1011.93 1012.05 1012.21 1012.33 1012.33 1012.37 1012.45 1012.49 1012.57 1012.65 1012.77 1012.85 1012.97 1013.09
1000.21 1000.41 1000.53 1000.65 1000.77 1000.93 1001.09 1001.25 1001.37 1001.57 1001.77 1001.93 1002.13 1002.33 1002.49 1002.65 1002.81 1002.93 1003.09 1003.33 1003.53 1003.77 1003.97 1004.25 1004.49 1004.69 1004.93 1005.25 1005.61 1005.93 1006.21 1006.49 1006.77 1007.05 1007.37 1007.61 1007.85 1008.13 1008.41 1008.69 1008.93 1009.09 1009.25 1009.37 1009.53 1009.73 1010.01 1010.33 1010.65 1011.01 1011.33 1011.61 1011.73 1011.69 1011.73 1011.81 1011.93 1011.97 1012.05 1012.13 1012.17 1012.25 1012.33 1012.45 1012.53 1012.61 1012.73 1012.85 1013.01
1000.21 1000.37 1000.53 1000.65 1000.77 1000.93 1001.05 1001.21 1001.33 1001.53 1001.73 1001.93 1002.09 1002.29 1002.45 1002.65 1002.81 1002.97 1003.17 1003.33 1003.57 1003.77 1003.97 1004.25 1004.45 1004.65 1004.93 1005.33 1005.69 1006.05 1006.37 1006.65 1006.85 1007.05 1007.33 1007.61 1007.89 1008.17 1008.45 1008.73 1008.97 1009.21 1009.41 1009.53 1009.65 1009.81 1010.01 1010.29 1010.57 1010.81 1011.05 1011.21 1011.33 1011.41 1011.49 1011.61 1011.69 1011.77 1011.85 1011.93 1011.97 1012.05 1012.17 1012.29 1012.45 1012.53 1012.65 1012.77 1012.93
1000.21 1000.37 1000.53 1000.65 1000.81 1000.93 1001.05 1001.21 1001.33 1001.53 1001.77 1001.93 1002.13 1002.25 1002.41 1002.61 1002.77 1002.97 1003.21 1003.37 1003.57 1003.77 1003.97 1004.21 1004.49 1004.65 1004.93 1005.25 1005.61 1005.97 1006.33 1006.69 1006.93 1007.09 1007.29 1007.53 1007.89 1008.17 1008.41 1008.65 1008.97 1009.25 1009.49 1009.69 1009.77 1009.93 1010.13 1010.41 1010.65 1010.81 1010.93 1011.01 1011.13 1011.21 1011.33 1011.49 1011.53 1011.61 1011.69 1011.77 1011.81 1011.93 1012.05 1012.21 1012.37 1012.49 1012.61 1012.73 1012.89
1000.21 1000.37 1000.53 1000.69 1000.85 1000.97 1001.09 1001.21 1001.37 1001.57 1001.77 1001.93 1002.13 1002.29 1002.41 1002.57 1002.77 1003.01 1003.21 1003.37 1003.57 1003.77 1004.01 1004.25 1004.49 1004.73 1005.01 1005.33 1005.69 1006.01 1006.33 1006.65 1006.93 1007.13 1007.33 1007.53 1007.85 1008.09 1008.33 1008.61 1008.93 1009.21 1009.49 1009.65 1009.77 1009.93 1010.17 1010.49 1010.73 1010.89 1010.93 1010.97 1011.01 1011.09 1011.21 1011.33 1011.45 1011.49 1011.61 1011.69 1011.77 1011.93 1012.05 1012.21 1012.37 1012.49 1012.65 1012.73 1012.89
1000.21 1000.45 1000.61 1000.73 1000.89 1001.05 1001.17 1001.29 1001.45 1001.61 1001.77 1001.97 1002.17 1002.33 1002.49 1002.65 1002.81 1003.05 1003.21 1003.45 1003.61 1003.81 1004.05 1004.29 1004.53 1004.81 1005.13 1005.49 1005.81 1006.13 1006.41 1006.65 1006.85 1007.05 1007.33 1007.61 1007.89 1008.13 1008.33 1008.65 1008.93 1009.21 1009.49 1009.69 1009.93 1010.13 1010.25 1010.49 1010.65 1010.77 1010.85 1010.89 1010.93 1011.05 1011.13 1011.21 1011.37 1011.49 1011.57 1011.69 1011.81 1011.97 1012.09 1012.25 1012.41 1012.61 1012.73 1012.85 1012.85
1000.29 1000.49 1000.65 1000.77 1000.93 1001.05 1001.17 1001.29 1001.45 1001.61 1001.81 1002.05 1002.21 1002.37 1002.53 1002.69 1002.89 1003.05 1003.29 1003.49 1003.69 1003.93 1004.13 1004.33 1004.57 1004.89 1005.21 1005.53 1005.89 1006.21 1006.49 1006.65 1006.81 1007.05 1007.41 1007.77 1008.01 1008.25 1008.49 1008.77 1009.01 1009.25 1009.49 1009.77 1010.17 1010.33 1010.37 1010.49 1010.65 1010.69 1010.73 1010.77 1010.85 1010.93 1011.05 1011.17 1011.33 1011.49 1011.61 1011.77 1011.93 1012.09 1012.25 1012.41 1012.53 1012.65 1012.77 1012.89 1012.93
1000.37 1000.53 1000.69 1000.81 1000.97 1001.13 1001.21 1001.33 1001.49 1001.69 1001.89 1002.05 1002.29 1002.49 1002.65 1002.77 1002.97 1003.17 1003.37 1003.57 1003.77 1003.97 1004.21 1004.41 1004.65 1004.93 1005.25 1005.49 1005.81 1006.13 1006.41 1006.65 1006.93 1007.21 1007.49 1007.81 1008.05 1008.33 1008.57 1008.81 1009.05 1009.21 1009.49 1009.93 1010.37 1010.49 1010.49 1010.49 1010.65 1010.73 1010.69 1010.65 1010.73 1010.85 1011.01 1011.17 1011.33 1011.53 1011.73 1011.89 1012.05 1012.21 1012.33 1012.49 1012.61 1012.69 1012.85 1013.05 1013.21
1000.45 1000.65 1000.77 1000.93 1001.05 1001.17 1001.29 1001.41 1001.57 1001.77 1001.93 1002.17 1002.33 1002.53 1002.69 1002.93 1003.13 1003.33 1003.49 1003.69 1003.89 1004.05 1004.25 1004.49 1004.73 1004.97 1005.25 1005.49 1005.77 1006.05 1006.33 1006.65 1006.97 1007.33 1007.61 1007.85 1008.09 1008.33 1008.61 1008.81 1009.05 1009.33 1009.65 1010.13 1010.49 1010.53 1010.45 1010.41 1010.57 1010.69 1010.73 1010.69 1010.73 1010.81 1011.01 1011.17 1011.37 1011.61 1011.81 1012.05 1012.21 1012.37 1012.53 1012.65 1012.85 1013.05 1013.21 1013.41 1013.49
1000.49 1000.65 1000.81 1000.93 1001.09 1001.21 1001.37 1001.53 1001.69 1001.89 1002.09 1002.29 1002.49 1002.65 1002.89 1003.05 1003.25 1003.49 1003.69 1003.89 1004.05 1004.21 1004.37 1004.57 1004.81 1005.05 1005.25 1005.49 1005.77 1006.05 1006.33 1006.65 1007.01 1007.33 1007.61 1007.93 1008.21 1008.45 1008.69 1008.89 1009.13 1009.45 1009.81 1010.21 1010.49 1010.53 1010.45 1010.33 1010.49 1010.65 1010.73 1010.73 1010.77 1010.85 1011.05 1011.21 1011.41 1011.73 1012.05 1012.33 1012.65 1012.85 1012.97 1013.05 1013.25 1013.49 1013.65 1013.73 1013.73
1000.57 1000.73 1000.89 1001.05 1001.21 1001.33 1001.49 1001.61 1001.81 1002.01 1002.21 1002.37 1002.61 1002.77 1002.97 1003.17 1003.37 1003.61 1003.85 1004.05 1004.25 1004.45 1004.57 1004.69 1004.89 1005.09 1005.33 1005.53 1005.81 1006.05 1006.37 1006.65 1007.01 1007.33 1007.69 1007.97 1008.25 1008.57 1008.81 1009.05 1009.25 1009.49 1009.81 1010.17 1010.41 1010.49 1010.49 1010.41 1010.49 1010.57 1010.73 1010.81 1010.93 1010.97 1011.09 1011.25 1011.61 1012.09 1012.57 1012.93 1013.21 1013.37 1013.49 1013.57 1013.77 1013.93 1014.05 1014.05 1014.01
1000.65 1000.81 1000.93 1001.13 1001.29 1001.49 1001.65 1001.81 1001.97 1002.17 1002.33 1002.49 1002.65 1002.89 1003.05 1003.25 1003.49 1003.77 1004.01 1004.21 1004.45 1004.61 1004.73 1004.85 1005.01 1005.25 1005.49 1005.77 1005.93 1006.17 1006.41 1006.73 1007.05 1007.37 1007.69 1007.97 1008.29 1008.61 1008.85 1009.05 1009.29 1009.61 1009.97 1010.25 1010.33 1010.41 1010.45 1010.49 1010.53 1010.65 1010.77 1010.93 1011.05 1011.09 1011.21 1011.49 1012.05 1012.57 1013.05 1013.49 1013.73 1013.85 1013.93 1013.97 1014.13 1014.33 1014.41 1014.37 1014.45
1000.73 1000.89 1001.05 1001.21 1001.41 1001.61 1001.81 1001.97 1002.13 1002.29 1002.45 1002.61 1002.77 1002.97 1003.17 1003.37 1003.65 1003.93 1004.13 1004.33 1004.53 1004.69 1004.85 1005.01 1005.21 1005.49 1005.73 1005.93 1006.17 1006.33 1006.57 1006.81 1007.17 1007.45 1007.69 1007.97 1008.29 1008.65 1008.93 1009.21 1009.49 1009.97 1010.33 1010.37 1010.33 1010.37 1010.49 1010.49 1010.57 1010.69 1010.81 1010.97 1011.05 1011.25 1011.61 1012.05 1012.57 1013.09 1013.61 1013.97 1014.21 1014.33 1014.41 1014.49 1014.65 1014.77 1014.81 1014.81 1014.89
1000.77 1000.97 1001.17 1001.33 1001.53 1001.73 1001.93 1002.09 1002.25 1002.45 1002.57 1002.73 1002.93 1003.13 1003.33 1003.57 1003.81 1004.05 1004.25 1004.49 1004.65 1004.81 1004.97 1005.17 1005.33 1005.61 1005.85 1006.05 1006.33 1006.57 1006.77 1007.01 1007.29 1007.57 1007.81 1008.01 1008.33 1008.89 1009.49 1009.93 1010.21 1010.33 1010.45 1010.49 1010.37 1010.33 1010.37 1010.49 1010.57 1010.69 1010.81 1011.01 1011.21 1011.53 1011.93 1012.45 1013.01 1013.57 1014.05 1014.41 1014.69 1014.89 1015.01 1015.13 1015.21 1015.25 1015.33 1015.41 1015.41
1000.85 1001.05 1001.25 1001.45 1001.61 1001.81 1002.05 1002.21 1002.41 1002.57 1002.73 1002.93 1003.09 1003.29 1003.49 1003.73 1003.97 1004.21 1004.41 1004.65 1004.77 1004.93 1005.09 1005.33 1005.57 1005.77 1006.05 1006.25 1006.53 1006.89 1007.29 1007.73 1007.97 1008.21 1008.37 1008.65 1008.97 1009.33 1009.69 1010.05 1010.29 1010.49 1010.61 1010.53 1010.37 1010.29 1010.33 1010.45 1010.61 1010.77 1010.93 1011.21 1011.49 1011.93 1012.37 1012.89 1013.41 1013.93 1014.45 1014.85 1015.13 1015.33 1015.45 1015.49 1015.61 1015.73 1015.81 1015.85 1015.85
1000.93 1001.13 1001.33 1001.49 1001.73 1001.93 1002.13 1002.33 1002.53 1002.73 1002.89 1003.09 1003.25 1003.49 1003.73 1003.93 1004.09 1004.33 1004.57 1004.81 1005.05 1005.33 1005.65 1005.93 1006.17 1006.41 1006.73 1007.01 1007.21 1007.49 1007.77 1008.05 1008.33 1008.49 1008.69 1008.89 1009.13 1009.49 1009.93 1010.25 1010.53 1010.73 1010.77 1010.73 1010.61 1010.49 1010.45 1010.53 1010.73 1010.89 1011.05 1011.37 1011.81 1012.33 1012.81 1013.33 1013.89 1014.33 1014.77 1015.13 1015.41 1015.61 1015.77 1015.85 1016.05 1016.21 1016.29 1016.21 1016.21
1000.93 1001.17 1001.37 1001.61 1001.81 1002.01 1002.21 1002.45 1002.65 1002.81 1003.05 1003.25 1003.45 1003.65 1003.89 1004.09 1004.33 1004.61 1004.93 1005.21 1005.57 1005.93 1006.25 1006.49 1006.77 1007.01 1007.29 1007.61 1007.89 1008.13 1008.37 1008.61 1008.77 1008.93 1009.05 1009.17 1009.33 1009.69 1010.09 1010.49 1010.77 1010.97 1011.09 1011.09 1011.05 1010.93 1010.85 1010.81 1010.85 1010.93 1011.17 1011.57 1012.13 1012.69 1013.25 1013.77 1014.25 1014.65 1015.01 1015.29 1015.57 1015.89 1016.17 1016.37 1016.49 1016.65 1016.69 1016.65 1016.61
1000.97 1001.21 1001.45 1001.65 1001.89 1002.09 1002.29 1002.49 1002.73 1002.93 1003.17 1003.41 1003.61 1003.85 1004.05 1004.33 1004.65 1005.01 1005.37 1005.69 1006.05 1006.45 1006.77 1007.09 1007.37 1007.65 1007.97 1008.29 1008.61 1008.89 1009.05 1009.13 1009.21 1009.37 1009.49 1009.61 1009.77 1010.05 1010.37 1010.77 1011.05 1011.33 1011.49 1011.49 1011.45 1011.41 1011.37 1011.29 1011.09 1011.05 1011.33 1011.85 1012.49 1013.05 1013.57 1014.05 1014.49 1014.93 1015.29 1015.57 1015.89 1016.29 1016.65 1016.89 1016.97 1017.05 1017.13 1017.13 1017.09
1001.05 1001.25 1001.49 1001.73 1001.97 1002.21 1002.41 1002.65 1002.85 1003.05 1003.29 1003.53 1003.81 1004.05 1004.25 1004.53 1004.93 1005.37 1005.81 1006.17 1006.53 1006.93 1007.33 1007.69 1008.05 1008.37 1008.65 1008.93 1009.21 1009.41 1009.61 1009.69 1009.73 1009.81 1010.01 1010.21 1010.33 1010.49 1010.77 1011.21 1011.53 1011.77 1011.85 1011.81 1011.77 1011.73 1011.69 1011.61 1011.49 1011.37 1011.57 1012.13 1012.73 1013.29 1013.77 1014.21 1014.69 1015.17 1015.61 1016.09 1016.49 1016.81 1017.05 1017.17 1017.33 1017.49 1017.61 1017.65 1017.61
1001.05 1001.25 1001.49 1001.77 1002.01 1002.25 1002.49 1002.69 1002.93 1003.21 1003.45 1003.69 1003.97 1004.25 1004.49 1004.77 1005.21 1005.77 1006.21 1006.61 1006.93 1007.33 1007.77 1008.21 1008.65 1009.01 1009.25 1009.37 1009.49 1009.73 1009.97 1010.13 1010.25 1010.41 1010.65 1010.81 1011.05 1011.21 1011.37 1011.65 1012.01 1012.17 1012.21 1012.17 1012.05 1012.01 1011.97 1011.93 1011.85 1011.81 1011.97 1012.41 1012.93 1013.45 1013.93 1014.41 1014.97 1015.49 1015.97 1016.37 1016.77 1017.09 1017.33 1017.49 1017.65 1017.89 1018.05 1018.13 1018.09
1001.05 1001.25 1001.53 1001.81 1002.05 1002.29 1002.53 1002.77 1003.01 1003.29 1003.53 1003.77 1004.05 1004.29 1004.65 1005.09 1005.69 1006.21 1006.65 1007.05 1007.37 1007.77 1008.17 1008.61 1009.05 1009.37 1009.57 1009.61 1009.73 1010.01 1010.37 1010.73 1011.01 1011.21 1011.37 1011.57 1011.77 1011.93 1012.05 1012.17 1012.37 1012.49 1012.57 1012.53 1012.49 1012.41 1012.37 1012.33 1012.29 1012.25 1012.37 1012.73 1013.21 1013.65 1014.17 1014.69 1015.21 1015.77 1016.21 1016.57 1016.93 1017.29 1017.61 1017.89 1018.05 1018.25 1018.45 1018.57 1018.61
1001.13 1001.33 1001.61 1001.93 1002.09 1002.33 1002.53 1002.77 1003.01 1003.25 1003.49 1003.77 1004.05 1004.49 1005.05 1005.65 1006.17 1006.61 1006.97 1007.41 1007.77 1008.17 1008.61 1009.01 1009.37 1009.65 1009.81 1009.93 1010.21 1010.53 1010.97 1011.37 1011.73 1011.93 1012.05 1012.17 1012.33 1012.45 1012.53 1012.65 1012.81 1012.93 1013.01 1013.01 1012.93 1012.89 1012.81 1012.77 1012.77 1012.73 1012.81 1013.05 1013.49 1013.93 1014.37 1014.89 1015.41 1015.93 1016.41 1016.81 1017.13 1017.49 1017.81 1018.17 1018.37 1018.61 1018.81 1018.93 1019.05
Wind_Speed
7 7 7 8 8 8 8 7 7 7 7 8 9 9 8 8 8 8 8 8 8 8 8 9 10 11 13 18 20 20 19 20 20 19 19 19 20 20 18 15 14 13 14 15 15 15 15 15 13 11 8 7 8 7 7 7 7 6 5 5 5 7 8 10 10 11 11 11 10
8 9 10 9 8 7 7 7 6 7 7 8 8 9 9 8 8 8 8 9 8 8 8 8 11 13 15 19 20 19 19 20 22 20 19 19 19 18 15 13 14 14 15 16 16 15 14 15 14 11 9 7 7 7 7 8 7 6 5 6 5 6 7 8 9 10 11 10 10
9 10 10 9 9 8 8 7 8 9 9 9 8 8 8 8 8 8 8 8 9 8 8 8 11 14 17 19 19 18 17 20 22 21 19 18 18 16 14 13 15 16 16 15 15 15 15 16 14 12 10 9 9 9 9 9 8 7 6 6 5 5 5 6 7 8 8 7 8
10 11 11 10 11 11 10 9 9 10 10 9 9 8 8 8 7 7 8 8 9 9 9 9 12 14 16 18 18 17 17 20 23 23 20 18 18 16 16 15 16 16 16 15 16 17 17 17 14 11 11 12 11 11 10 10 9 7 6 6 5 5 5 5 6 6 6 6 8
11 11 11 10 12 12 11 10 11 10 9 7 7 7 7 6 6 7 7 7 8 9 10 12 13 14 15 17 19 18 17 21 23 22 20 19 18 17 17 17 17 16 15 15 16 18 19 19 13 11 11 13 11 11 12 12 11 9 7 5 4 4 5 5 5 5 5 6 6
12 11 11 10 12 12 11 10 11 10 8 7 7 7 7 6 6 7 8 8 8 9 11 13 14 14 16 19 19 18 18 19 21 21 21 21 20 19 19 19 18 17 15 15 16 18 19 18 13 11 11 11 12 13 13 14 11 9 8 6 5 5 5 5 5 5 5 6 7
11 11 11 11 12 12 11 10 10 9 8 7 8 9 9 8 8 9 10 9 8 9 10 11 13 15 16 19 18 18 17 17 19 21 23 22 22 22 22 21 19 18 17 16 16 16 16 16 13 11 11 11 12 13 14 13 11 10 9 8 7 5 5 6 5 5 5 7 8
11 11 12 12 12 12 12 11 10 9 8 6 8 9 10 11 11 11 11 10 9 9 10 10 14 17 18 19 18 18 18 18 18 20 22 24 25 25 24 22 20 19 18 17 15 14 13 13 11 11 12 12 11 12 13 13 13 12 11 11 8 6 6 6 6 6 6 8 9
10 11 12 12 13 13 12 12 11 10 9 8 8 9 10 10 12 12 11 9 9 9 10 11 15 18 19 20 20 19 19 19 18 19 21 25 26 26 24 22 21 20 18 17 15 14 13 10 10 11 11 11 10 11 12 14 14 14 13 12 10 8 7 7 7 7 7 8 8
11 11 12 12 13 13 12 12 12 11 11 9 9 9 8 8 10 10 9 8 9 10 11 12 16 18 19 21 20 19 18 18 18 19 22 25 26 26 24 21 22 20 18 16 15 14 13 10 11 12 13 12 12 12 12 13 14 14 14 10 9 9 9 8 8 8 8 8 8
12 12 12 12 13 13 12 12 11 11 11 10 10 9 8 7 9 9 9 9 10 11 12 14 17 18 18 19 19 18 17 16 16 19 22 24 24 24 23 21 22 21 19 18 16 14 12 11 13 15 16 14 13 13 13 12 13 14 13 10 10 11 11 10 10 9 9 9 9
12 13 13 12 13 13 12 12 11 10 11 10 10 9 8 8 9 9 10 10 11 12 12 14 16 17 17 16 17 16 15 15 17 19 21 23 23 22 21 21 22 22 21 20 17 14 13 14 15 17 18 17 13 12 12 12 13 13 13 12 12 12 12 12 11 10 10 11 11
13 13 12 12 13 13 12 11 10 10 11 11 10 9 9 8 9 10 11 12 11 11 11 13 15 16 16 15 15 15 14 16 19 19 20 22 22 21 21 20 21 22 22 21 18 16 15 16 16 17 18 18 14 12 12 13 13 14 14 14 13 13 13 13 13 12 12 13 12
13 13 12 12 13 12 11 11 9 9 10 11 10 9 9 9 9 10 10 11 11 11 11 12 12 12 13 15 14 14 15 16 19 20 20 21 21 21 21 21 22 22 22 20 19 19 18 18 17 16 16 17 15 14 14 14 15 15 15 15 15 15 14 14 14 14 14 14 14
12 12 12 12 12 11 10 10 9 9 10 11 10 9 9 9 9 10 10 11 12 11 11 11 10 11 12 14 14 14 14 15 17 19 20 21 21 22 22 22 23 23 22 21 20 21 21 20 17 15 14 15 16 16 15 15 15 15 15 15 15 15 15 14 15 15 14 14 13
12 12 12 11 11 10 10 9 8 8 9 10 10 10 9 9 10 11 12 12 11 10 10 12 11 10 11 12 14 14 13 13 15 17 19 20 20 21 22 23 24 24 24 23 22 21 21 20 17 15 13 13 15 16 16 16 15 15 15 14 15 15 15 15 15 15 14 14 13
11 11 11 11 11 10 10 9 8 8 9 10 10 10 10 10 10 11 12 13 11 11 11 13 12 11 11 11 12 12 12 12 13 15 17 18 19 20 21 22 23 24 25 25 23 22 20 19 17 15 14 14 14 15 15 16 15 14 14 14 15 15 16 16 15 15 14 13 14
11 11 11 11 11 11 11 10 9 9 10 11 11 11 10 11 11 12 13 14 13 13 14 15 12 12 12 13 12 11 11 11 12 13 14 16 17 18 18 18 20 22 24 24 23 22 20 19 18 17 16 15 16 15 15 15 14 14 15 15 16 16 16 15 14 13 13 13 13
11 11 11 11 12 12 11 11 10 11 11 12 12 11 11 12 13 13 14 15 15 15 16 15 13 12 13 14 13 11 10 11 12 13 14 14 15 15 16 16 17 19 20 21 21 20 20 19 19 19 19 18 18 17 15 14 14 15 15 16 16 15 14 13 13 12 12 13 13
10 10 11 11 12 12 12 11 11 12 12 12 12 12 12 13 13 14 15 16 16 17 17 15 14 14 14 15 14 12 11 10 11 12 13 14 14 14 14 15 16 17 17 18 18 18 18 18 19 20 20 20 20 18 15 13 14 14 15 14 14 14 13 13 12 12 12 13 12
10 10 11 11 11 11 11 11 12 12 13 13 13 13 13 13 14 15 16 16 17 17 17 16 15 15 16 16 16 14 12 9 11 12 12 13 14 14 14 14 15 15 15 16 16 16 16 16 17 18 19 20 18 16 14 12 13 13 14 12 12 12 13 12 12 12 12 12 12
9 10 10 10 11 11 10 11 11 12 13 13 13 13 13 14 14 14 15 16 16 17 17 16 16 17 18 18 18 17 14 11 12 12 12 12 13 13 13 13 14 14 14 14 14 15 15 15 15 16 16 17 16 14 13 11 12 12 13 12 12 12 12 12 12 12 12 12 12
8 8 8 9 10 9 9 10 10 11 12 13 13 13 13 14 14 14 15 15 16 17 17 16 16 17 18 19 18 18 16 14 14 13 13 12 12 13 13 13 14 13 13 12 13 14 14 14 15 16 16 16 16 15 14 12 12 12 12 13 13 12 12 12 11 11 11 11 11
8 7 7 7 8 9 8 9 10 11 12 12 13 13 13 13 14 15 15 16 16 17 17 15 15 17 18 18 17 17 16 15 14 14 13 12 12 12 12 12 12 11 11 9 10 12 13 13 14 15 16 16 16 15 14 12 12 11 12 12 12 12 11 11 11 10 10 10 9
8 8 7 7 8 8 9 9 10 11 11 12 12 12 13 13 14 14 15 16 17 17 17 16 16 16 17 17 16 15 15 14 13 13 12 11 11 11 11 10 9 9 8 7 8 11 13 13 14 15 16 16 16 14 13 11 11 10 10 10 10 10 10 9 9 9 8 9 9
8 8 8 8 8 8 9 10 10 11 11 12 12 12 12 13 13 13 14 16 16 17 17 16 16 16 15 16 16 15 13 12 12 12 12 11 11 11 10 9 8 7 6 5 7 10 14 15 15 15 15 15 14 13 11 10 9 9 9 9 8 7 7 8 8 8 7 6 5
8 8 8 8 8 9 9 10 10 11 11 12 12 12 12 12 11 12 14 15 15 15 15 15 15 14 14 15 17 16 14 12 12 12 12 11 11 11 11 9 8 7 6 5 6 9 13 16 16 14 13 12 12 11 9 8 8 7 7 7 6 5 5 6 6 5 3 2 2
9 8 8 8 9 9 9 10 10 11 11 12 12 12 12 12 12 12 13 13 14 13 13 13 12 11 11 13 16 17 16 14 13 12 11 11 11 10 10 9 8 7 7 6 7 8 11 14 15 14 12 9 8 8 7 7 5 4 3 2 1 1 1 2 1 3 4 4 4
9 9 9 9 9 9 9 10 10 11 11 12 12 13 13 13 12 12 12 12 12 12 10 9 8 8 9 11 14 16 16 16 14 12 11 11 11 10 9 9 9 8 8 8 8 9 10 12 13 13 12 9 7 6 6 6 3 2 3 4 4 4 4 4 5 5 5 4 4
9 9 9 10 10 10 9 10 10 11 11 11 12 12 13 13 12 12 12 11 11 10 8 7 7 9 10 12 12 13 14 15 14 14 13 13 12 11 9 9 10 10 10 8 8 9 9 10 11 11 10 9 7 6 6 5 4 6 6 6 6 6 6 7 7 7 6 4 5
10 10 10 10 10 10 10 10 10 11 11 11 12 13 13 12 12 12 11 10 10 8 7 8 9 10 11 11 11 11 12 12 13 13 13 13 12 11 11 11 11 8 5 4 7 8 8 8 9 9 8 7 5 4 3 5 8 8 8 8 8 8 8 8 8 8 7 7 6
10 10 10 10 11 11 10 10 10 11 12 13 13 13 13 12 12 11 10 10 9 9 8 9 10 10 9 9 9 9 10 10 11 12 12 13 13 11 9 6 5 3 3 3 6 8 9 9 10 10 9 8 6 7 8 11 11 11 10 11 11 11 10 9 9 9 10 10 8
11 11 11 11 11 11 11 11 11 11 12 13 13 13 13 12 11 11 10 9 9 9 9 9 9 9 8 8 8 8 7 6 6 6 7 9 9 9 8 7 5 4 3 3 8 11 12 12 13 13 13 12 11 11 12 13 11 11 11 12 12 12 13 12 11 11 11 10 9
11 11 11 12 12 12 12 12 11 12 12 12 13 13 12 12 11 11 10 8 8 7 7 7 7 7 7 6 7 8 8 8 7 7 7 9 10 10 9 7 5 5 5 4 8 12 14 15 16 17 16 14 12 12 13 14 12 12 12 13 13 13 13 13 13 13 12 10 9
11 11 12 12 12 12 12 12 12 12 12 12 12 12 12 11 11 10 9 9 9 9 9 9 9 10 10 10 10 11 11 10 10 10 10 11 11 11 11 9 8 9 9 7 8 11 15 17 18 18 16 14 12 13 14 15 14 14 14 14 14 14 15 14 14 13 12 11 10
11 11 12 12 12 13 13 13 12 12 12 12 12 11 11 11 10 10 11 12 12 12 12 11 12 12 12 12 12 12 12 12 11 11 11 11 12 12 12 11 11 11 12 11 10 10 12 15 17 17 16 13 12 12 13 13 13 14 15 15 15 16 16 16 15 14 13 12 12
11 12 12 12 13 13 13 13 13 12 12 12 11 11 11 11 11 12 13 14 14 14 14 13 13 13 14 13 13 12 12 12 12 12 12 12 12 13 13 12 12 11 12 12 11 10 9 10 13 15 15 14 13 13 12 12 11 12 14 15 16 16 16 14 15 15 16 16 15
11 12 12 13 13 13 13 12 12 12 12 11 11 10 10 11 11 13 14 13 14 15 15 15 15 14 14 14 14 14 14 14 14 14 14 13 13 13 14 14 13 11 11 12 12 11 10 9 11 13 15 14 14 13 12 11 12 12 13 14 14 14 14 12 13 14 17 20 20
11 12 12 13 13 13 13 12 12 12 12 11 11 10 10 10 11 13 13 13 15 16 16 16 16 15 14 14 14 15 16 17 17 16 16 15 15 15 15 14 13 12 13 14 14 13 13 12 13 14 15 15 14 12 11 12 13 13 13 12 13 13 13 12 12 13 16 21 25
11 11 12 13 13 13 13 13 12 12 12 12 12 11 11 12 13 14 14 14 15 16 16 16 16 15 14 14 16 18 19 19 18 18 17 17 17 17 16 15 14 14 15 16 16 15 15 14 14 15 15 14 13 12 11 12 13 13 13 12 12 12 12 12 12 12 14 18 21
11 11 12 12 12 13 13 14 14 13 12 11 11 11 12 14 15 15 15 15 16 15 15 15 16 16 15 15 17 18 20 19 18 18 17 17 17 17 16 16 16 16 16 17 18 17 17 16 15 14 14 13 12 12 11 12 13 14 14 12 12 11 11 12 12 12 13 15 16
Wind_Direction
176 192 205 211 205 202 201 203 205 206 206 204 205 205 203 202 199 196 192 191 188 180 174 177 180 179 177 177 179 178 176 175 176 176 176 174 173 170 166 159 154 152 153 154 153 153 153 153 151 150 149 149 154 162 172 183 184 184 181 180 177 177 179 185 187 188 189 191 193
188 199 203 200 194 194 198 203 203 205 207 207 206 205 204 204 202 198 195 194 191 184 176 175 179 179 178 177 180 179 176 172 171 171 171 171 169 165 160 153 153 154 156 157 155 154 154 155 155 155 156 154 159 165 174 184 185 185 184 184 178 174 176 183 186 188 189 192 194
192 194 192 187 188 193 198 204 204 204 205 207 206 204 203 204 203 200 197 195 191 185 177 173 178 178 177 177 180 179 174 168 167 167 167 168 166 162 157 153 154 156 159 159 158 156 156 157 158 160 163 166 170 174 180 186 186 187 189 190 183 175 175 182 185 187 189 194 197
191 189 185 183 188 195 201 205 202 200 200 202 204 203 202 201 200 197 194 192 189 185 179 174 175 176 177 176 180 179 172 164 163 164 165 167 165 162 158 155 155 157 159 158 158 158 158 159 160 164 169 176 179 183 186 187 186 189 193 194 189 183 179 181 183 186 190 196 200
189 187 184 186 191 196 201 203 197 194 193 195 197 196 195 194 192 190 188 186 186 183 179 174 174 174 175 176 179 177 169 160 160 161 164 167 167 165 161 159 158 158 158 157 158 159 160 162 163 167 174 180 184 189 191 190 189 191 195 196 197 194 189 185 183 184 188 195 200
187 186 186 190 194 196 198 197 191 186 183 184 188 190 189 186 183 181 180 180 180 178 175 172 171 171 173 175 178 176 168 157 156 159 164 168 169 169 166 162 161 159 158 157 159 160 162 164 167 172 179 185 190 193 194 193 191 194 198 201 204 202 199 195 189 184 185 192 197
186 186 188 191 192 192 191 188 182 177 175 179 185 187 187 184 179 176 174 172 171 170 170 168 169 169 170 172 175 174 168 156 152 157 163 169 172 172 170 166 162 159 158 158 159 161 164 167 171 178 185 190 194 195 194 193 193 197 203 208 207 205 205 204 197 189 188 193 197
187 189 190 190 190 189 187 181 176 173 173 179 183 184 182 179 174 170 166 163 164 165 166 165 167 167 167 169 172 171 166 156 153 157 163 169 172 174 172 168 162 158 157 158 158 161 165 170 177 185 191 196 198 197 195 194 196 201 207 213 212 211 210 213 206 198 194 196 198
189 192 192 191 189 187 184 178 174 173 175 179 179 178 174 172 168 165 161 160 161 162 163 163 164 164 166 168 169 168 164 158 158 159 162 167 171 172 172 168 162 158 156 158 159 161 166 173 185 193 197 201 203 201 199 197 200 205 210 216 217 214 213 217 214 208 202 199 199
191 192 191 190 187 184 180 177 174 174 174 175 175 172 168 164 162 161 158 155 155 157 160 160 161 162 165 168 168 165 162 161 163 163 163 166 169 170 170 168 165 161 157 158 160 163 169 176 191 198 203 206 208 208 205 202 205 209 212 217 218 218 218 219 218 214 209 207 204
193 192 190 189 184 181 177 175 175 175 175 174 172 169 164 160 159 156 152 150 152 155 158 158 160 161 163 166 165 163 162 165 168 167 165 166 167 168 169 169 167 164 161 160 162 167 174 182 194 201 205 209 211 211 209 206 209 212 216 219 220 221 220 219 217 216 215 215 211
193 192 190 188 182 178 175 174 175 176 176 174 171 167 164 163 158 153 148 149 152 154 155 156 159 160 161 162 163 163 165 170 171 168 165 164 164 165 166 167 166 164 162 162 165 170 178 186 195 201 205 207 208 208 207 205 209 213 215 217 217 218 218 216 215 216 217 218 217
192 191 189 186 181 177 175 174 175 176 175 172 169 166 164 163 157 152 149 151 152 153 153 153 156 157 157 157 160 164 169 173 170 166 162 161 161 161 162 163 162 162 163 165 170 175 181 186 193 200 203 203 203 202 201 201 205 209 210 210 210 211 212 213 213 215 218 220 220
190 189 187 185 180 177 175 177 177 177 174 169 165 163 162 162 156 152 150 152 153 153 152 151 151 151 151 152 155 161 166 170 165 160 156 156 158 159 159 160 161 162 165 169 174 179 182 185 190 197 201 198 196 195 195 196 201 203 204 203 204 205 208 210 212 215 217 219 221
186 186 185 183 180 178 177 179 179 176 171 166 161 160 160 160 156 154 152 152 154 154 153 152 149 146 145 146 149 153 157 161 157 153 152 153 156 157 158 159 162 165 169 174 178 181 183 184 187 192 197 196 192 189 189 191 196 198 198 199 200 203 206 209 212 214 216 217 220
182 182 181 181 180 179 180 181 179 174 168 162 158 157 158 159 157 156 155 155 155 155 156 155 150 145 142 142 144 146 149 152 149 148 150 153 156 158 159 161 165 169 173 176 177 179 181 182 183 188 195 199 195 190 187 188 192 194 196 197 200 203 207 209 211 213 215 215 219
178 178 178 178 180 181 182 180 176 170 164 158 156 156 158 159 159 159 158 158 158 158 158 157 152 147 143 141 141 142 145 148 147 148 150 154 156 159 162 164 168 171 173 174 175 175 176 178 180 185 193 203 205 199 192 188 190 194 197 201 204 207 210 211 212 214 215 216 220
176 176 176 177 181 183 183 179 173 168 162 157 155 156 158 159 160 161 160 160 160 160 159 156 152 149 146 144 141 140 142 148 152 154 155 155 158 162 166 169 172 174 173 173 172 172 172 173 177 182 191 203 212 210 203 193 193 196 201 206 210 213 214 215 215 216 217 219 223
176 177 179 180 183 184 182 177 171 167 164 160 157 158 159 160 161 162 162 163 162 161 159 156 153 150 149 148 145 143 142 146 154 159 161 160 160 163 168 173 176 177 176 174 172 171 170 171 174 179 187 198 210 214 211 202 199 201 205 210 214 217 218 219 220 221 223 224 227
180 183 185 185 184 183 181 176 171 168 166 163 161 160 160 161 162 162 163 164 164 162 159 156 154 152 150 151 152 152 151 150 155 160 164 165 164 165 168 171 175 178 179 179 176 174 172 173 174 178 185 194 206 212 213 208 207 208 210 214 216 219 221 223 224 226 228 229 230
189 189 190 187 184 181 178 174 171 169 168 166 164 162 162 161 162 162 163 163 163 162 160 158 156 154 152 154 159 163 165 164 163 162 164 167 168 168 167 166 169 174 179 184 183 182 181 181 182 184 189 196 204 210 212 212 213 214 216 218 220 222 224 226 228 230 231 231 231
190 190 189 186 182 178 175 172 169 168 168 168 165 163 162 161 161 161 160 160 161 161 161 159 158 155 154 157 164 168 172 176 174 170 166 166 168 169 167 164 164 168 175 183 187 189 190 191 195 199 202 206 210 213 216 218 220 221 223 224 226 227 228 230 232 232 232 233 232
180 180 181 181 177 173 169 167 165 165 166 167 165 163 161 160 159 158 158 159 159 160 160 159 158 156 155 158 164 168 173 177 179 176 171 165 164 165 166 166 167 168 171 178 183 187 190 194 203 210 215 218 219 221 222 224 226 227 229 230 231 232 234 234 235 234 234 233 232
168 169 172 175 172 168 164 162 162 162 164 165 164 162 160 158 157 156 157 159 159 160 160 159 157 155 155 157 161 164 167 170 171 170 168 164 162 161 161 163 169 173 175 177 180 182 185 190 200 210 217 221 223 224 225 226 229 231 234 235 237 237 238 237 236 235 234 231 229
166 168 169 170 168 165 162 161 160 160 161 161 161 159 157 156 155 156 158 159 159 159 159 158 156 156 156 158 158 157 157 157 155 154 155 159 160 159 158 157 162 168 174 176 176 178 181 184 194 204 211 216 219 222 225 227 229 232 235 238 240 241 241 238 234 230 227 225 224
168 168 168 166 164 162 160 158 156 155 156 156 157 156 155 153 153 155 157 159 159 158 157 156 155 156 158 160 158 155 151 146 143 142 145 151 154 155 155 154 156 160 164 170 176 177 178 179 188 198 207 211 215 218 222 225 227 230 234 237 239 237 234 232 227 222 217 216 220
163 163 162 159 157 155 153 150 149 149 150 153 156 155 154 151 151 154 157 158 158 157 157 156 155 154 156 159 158 155 151 144 140 140 142 146 149 151 153 155 156 156 161 174 189 183 177 174 183 192 202 209 212 215 218 222 223 224 226 229 229 227 223 223 222 214 193 121 97
156 155 154 152 150 147 143 141 142 144 147 152 155 156 154 151 150 152 154 156 157 157 156 154 153 152 153 157 157 156 152 147 144 143 144 145 146 149 152 156 158 160 166 184 202 197 185 175 180 187 195 204 211 215 217 218 212 204 196 194 192 185 184 186 112 74 64 60 71
151 150 149 148 144 139 136 136 139 142 145 148 151 152 152 150 149 149 150 151 154 155 153 150 148 148 151 153 154 153 151 150 148 148 147 147 148 151 156 161 164 169 177 189 203 205 197 185 184 186 191 196 206 214 217 213 190 133 88 71 56 48 48 57 58 55 52 51 64
150 150 149 147 143 139 136 136 137 140 141 143 143 144 143 142 141 141 142 143 146 146 142 135 136 142 148 149 149 149 150 151 152 153 153 153 154 157 162 167 175 178 181 188 199 202 199 190 187 187 188 189 199 209 211 196 116 86 73 63 56 52 54 61 60 56 49 47 53
151 151 150 148 143 140 137 135 135 136 137 138 137 135 133 132 131 131 132 132 132 128 121 117 122 132 139 142 143 143 144 146 151 155 157 159 160 164 171 177 180 173 160 165 181 183 178 170 169 167 165 162 172 186 170 107 87 80 74 66 58 54 54 58 57 52 46 45 47
153 153 151 147 144 140 137 135 134 134 134 134 133 131 129 127 127 126 125 124 120 116 113 112 115 119 123 125 130 135 140 147 154 160 164 168 170 169 167 169 145 106 75 104 140 141 135 129 127 126 124 121 115 106 96 88 84 79 74 68 60 54 51 52 51 47 44 43 42
154 153 150 147 144 141 138 136 135 134 134 133 132 131 131 130 130 129 127 123 121 121 122 122 123 123 124 127 130 130 128 125 133 145 154 160 150 130 109 91 70 48 45 93 119 119 116 111 107 104 101 98 97 95 93 91 88 83 77 69 62 58 55 54 52 48 45 44 43
154 152 150 147 144 142 140 139 137 136 135 134 134 135 135 135 133 131 128 123 117 112 107 105 107 107 105 102 101 96 89 77 72 76 88 99 98 94 89 83 70 46 37 72 108 113 111 107 103 99 96 93 93 93 91 88 86 83 79 74 67 62 58 56 52 48 44 42 43
153 151 148 146 144 143 142 141 140 139 137 137 136 136 135 133 130 125 117 105 93 82 73 68 70 70 68 63 64 69 73 75 74 76 81 88 90 89 84 78 66 48 40 51 84 102 108 109 106 102 98 95 93 92 90 88 86 84 82 78 71 63 58 54 51 47 43 40 42
153 150 147 146 145 144 143 143 142 141 140 138 136 134 131 127 121 111 100 91 85 80 77 74 74 73 71 68 64 64 67 71 72 73 75 81 85 86 83 76 65 50 41 42 57 79 97 107 107 104 100 96 95 94 92 91 88 85 81 77 71 65 59 54 52 49 45 42 43
154 150 147 147 146 145 145 143 142 141 140 137 135 132 129 125 115 104 96 93 91 88 85 82 79 77 75 73 69 65 63 65 69 70 70 70 77 80 80 73 62 50 41 38 46 56 71 91 100 102 101 99 99 98 96 95 91 84 77 72 69 67 65 62 58 54 51 48 47
155 151 148 147 147 146 146 144 143 141 139 136 134 133 132 129 115 105 99 96 96 94 91 86 83 81 80 80 77 70 64 61 62 64 64 63 66 71 73 70 60 51 43 41 46 50 57 68 85 95 100 103 103 102 100 97 92 86 81 77 74 71 69 67 63 59 55 53 52
157 153 151 148 148 148 148 148 146 143 140 137 137 138 136 126 109 101 98 97 97 96 94 91 88 86 84 82 79 72 65 59 57 57 58 58 58 61 65 67 61 53 48 46 50 54 59 67 79 89 97 103 104 103 100 97 94 91 89 87 83 77 72 69 66 63 59 57 56
157 155 153 151 151 151 153 154 152 150 147 146 146 140 126 106 97 96 96 96 95 95 94 93 91 88 85 81 77 73 68 62 58 58 58 60 59 59 61 63 60 55 51 49 52 56 61 67 76 85 94 100 102 102 101 100 98 96 94 91 88 83 78 73 70 67 63 60 58
157 156 156 155 156 158 160 162 161 159 155 150 138 119 102 94 96 98 99 97 95 94 93 92 90 87 83 78 76 75 72 68 64 61 61 61 60 59 58 59 58 55 53 51 54 57 61 64 70 78 87 97 100 102 102 102 100 98 96 94 92 88 84 79 74 70 66 63 60